| time (UTC) | temp F | wind direction | speed MPH | gust MPH | rain 1hr in | rain 24hr in | rain mn in | humidity % | barometer mb |
| 20260506042011 | 36 | 358 | 2.0 | 5.0 | 0.00 | 0.00 | 0.00 | 59 | 1016.3 |
| 20260506041524 | 36 | 352 | 1.0 | 4.0 | 0.00 | 0.00 | 0.00 | 60 | 1016.3 |
| 20260506041511 | 36 | 15 | 1.0 | 4.0 | 0.00 | 0.00 | 0.00 | 59 | 1016.3 |
| 20260506041004 | 36 | 46 | 1.0 | 4.0 | 0.00 | 0.00 | 0.00 | 59 | 1016.4 |
| 20260506040511 | 36 | 346 | 2.0 | 4.0 | 0.00 | 0.00 | 0.00 | 58 | 1016.4 |
| 20260506040039 | 36 | 331 | 2.0 | 5.0 | 0.00 | 0.00 | 0.00 | 59 | 1016.3 |
| 20260506040018 | 37 | 10 | 2.0 | 6.0 | 0.00 | 0.00 | 0.00 | 58 | 1016.3 |
| 20260506035508 | 37 | 350 | 2.0 | 6.0 | 0.00 | 0.00 | 0.00 | 58 | 1016.4 |
| 20260506035005 | 37 | 25 | 4.0 | 5.0 | 0.00 | 0.00 | 0.00 | 59 | 1016.4 |
| 20260506034523 | 37 | 352 | 2.0 | 4.0 | 0.00 | 0.00 | 0.00 | 59 | 1016.3 |
| 20260506034009 | 37 | 27 | 2.0 | 4.0 | 0.00 | 0.00 | 0.00 | 58 | 1016.3 |
| 20260506033507 | 37 | 12 | 2.0 | 4.0 | 0.00 | 0.00 | 0.00 | 57 | 1016.3 |
| 20260506033026 | 38 | 321 | 1.0 | 4.0 | 0.00 | 0.00 | 0.00 | 57 | 1016.1 |
| 20260506032507 | 38 | 311 | 2.0 | 4.0 | 0.00 | 0.00 | 0.00 | 56 | 1015.9 |
| 20260506032011 | 38 | 342 | 2.0 | 4.0 | 0.00 | 0.00 | 0.00 | 56 | 1015.8 |
| 20260506031526 | 38 | 342 | 2.0 | 6.0 | 0.00 | 0.00 | 0.00 | 55 | 1015.7 |
| 20260506031518 | 38 | 8 | 2.0 | 6.0 | 0.00 | 0.00 | 0.00 | 56 | 1015.7 |
| 20260506031008 | 39 | 335 | 3.0 | 6.0 | 0.00 | 0.00 | 0.00 | 55 | 1015.7 |
| 20260506030513 | 39 | 340 | 3.0 | 6.0 | 0.00 | 0.00 | 0.00 | 55 | 1015.7 |
| 20260506030019 | 39 | 330 | 3.0 | 6.0 | 0.00 | 0.00 | 0.00 | 55 | 1015.6 |
| 20260506030012 | 39 | 357 | 3.0 | 6.0 | 0.00 | 0.00 | 0.00 | 55 | 1015.7 |
| 20260506025511 | 39 | 316 | 3.0 | 8.0 | 0.00 | 0.00 | 0.00 | 55 | 1015.5 |
| 20260506025008 | 39 | 345 | 4.0 | 8.0 | 0.00 | 0.00 | 0.00 | 55 | 1015.4 |
| 20260506024525 | 39 | 21 | 4.0 | 8.0 | 0.00 | 0.00 | 0.00 | 55 | 1015.4 |
| 20260506024517 | 39 | 30 | 4.0 | 8.0 | 0.00 | 0.00 | 0.00 | 54 | 1015.4 |
| 20260506024010 | 39 | 30 | 4.0 | 8.0 | 0.00 | 0.00 | 0.00 | 54 | 1015.4 |
| 20260506023507 | 39 | 338 | 3.0 | 7.0 | 0.00 | 0.00 | 0.00 | 54 | 1015.3 |
| 20260506023022 | 39 | 25 | 4.0 | 7.0 | 0.00 | 0.00 | 0.00 | 54 | 1015.3 |
| 20260506023012 | 39 | 8 | 3.0 | 7.0 | 0.00 | 0.00 | 0.00 | 54 | 1015.3 |
| 20260506022509 | 39 | 8 | 3.0 | 8.0 | 0.00 | 0.00 | 0.00 | 53 | 1015.2 |
| 20260506022008 | 40 | 359 | 4.0 | 8.0 | 0.00 | 0.00 | 0.00 | 52 | 1015.1 |
| 20260506021525 | 40 | 322 | 4.0 | 8.0 | 0.00 | 0.00 | 0.00 | 52 | 1015.1 |
| 20260506021511 | 40 | 323 | 3.0 | 8.0 | 0.00 | 0.00 | 0.00 | 53 | 1015.0 |
| 20260506021008 | 40 | 5 | 3.0 | 9.0 | 0.00 | 0.00 | 0.00 | 52 | 1015.1 |
| 20260506020512 | 41 | 340 | 4.0 | 9.0 | 0.00 | 0.00 | 0.00 | 50 | 1014.9 |
| 20260506020056 | 41 | 5 | 4.0 | 13.0 | 0.00 | 0.00 | 0.00 | 49 | 1014.7 |
| 20260506020008 | 41 | 327 | 3.0 | 12.0 | 0.00 | 0.00 | 0.00 | 49 | 1014.6 |
| 20260506015509 | 41 | 49 | 5.0 | 13.0 | 0.00 | 0.00 | 0.00 | 48 | 1014.6 |
| 20260506015011 | 42 | 306 | 8.0 | 12.0 | 0.00 | 0.00 | 0.00 | 49 | 1014.8 |
| 20260506014515 | 42 | 312 | 6.0 | 12.0 | 0.00 | 0.00 | 0.00 | 49 | 1014.6 |
| 20260506014510 | 42 | 314 | 6.0 | 12.0 | 0.00 | 0.00 | 0.00 | 48 | 1014.7 |
| 20260506014007 | 42 | 313 | 6.0 | 12.0 | 0.00 | 0.00 | 0.00 | 47 | 1014.7 |
| 20260506013507 | 42 | 315 | 5.0 | 12.0 | 0.00 | 0.00 | 0.00 | 47 | 1014.7 |
| 20260506013016 | 43 | 7 | 7.0 | 12.0 | 0.00 | 0.00 | 0.00 | 45 | 1014.6 |
| 20260506013005 | 43 | 10 | 6.0 | 12.0 | 0.00 | 0.00 | 0.00 | 46 | 1014.4 |
| 20260506012506 | 43 | 15 | 5.0 | 12.0 | 0.00 | 0.00 | 0.00 | 46 | 1014.5 |
| 20260506012009 | 43 | 335 | 5.0 | 12.0 | 0.00 | 0.00 | 0.00 | 45 | 1014.5 |
| 20260506011526 | 43 | 344 | 5.0 | 12.0 | 0.00 | 0.00 | 0.00 | 45 | 1014.5 |
| 20260506011503 | 43 | 344 | 5.0 | 10.0 | 0.00 | 0.00 | 0.00 | 45 | 1014.3 |
| 20260506011008 | 43 | 326 | 4.0 | 12.0 | 0.00 | 0.00 | 0.00 | 44 | 1014.6 |
| 20260506010506 | 43 | 343 | 7.0 | 14.0 | 0.00 | 0.00 | 0.00 | 44 | 1014.5 |
| 20260506010029 | 43 | 7 | 6.0 | 14.0 | 0.00 | 0.00 | 0.00 | 44 | 1014.5 |
| 20260506005512 | 44 | 32 | 7.0 | 12.0 | 0.00 | 0.00 | 0.00 | 43 | 1014.5 |
| 20260506005009 | 44 | 314 | 5.0 | 13.0 | 0.00 | 0.00 | 0.00 | 44 | 1014.4 |
| 20260506004604 | 44 | 357 | 7.0 | 13.0 | 0.00 | 0.00 | 0.00 | 44 | 1014.1 |
| 20260506004528 | 44 | 341 | 6.0 | 13.0 | 0.00 | 0.00 | 0.00 | 44 | 1014.3 |
| 20260506004010 | 44 | 333 | 5.0 | 13.0 | 0.00 | 0.00 | 0.00 | 44 | 1014.2 |
| 20260506003513 | 44 | 316 | 7.0 | 13.0 | 0.00 | 0.00 | 0.00 | 43 | 1014.2 |
| 20260506003116 | 44 | 306 | 6.0 | 16.0 | 0.00 | 0.00 | 0.00 | 44 | 1014.0 |
| 20260506003028 | 44 | 13 | 6.0 | 16.0 | 0.00 | 0.00 | 0.00 | 43 | 1014.3 |
| 20260506002509 | 44 | 323 | 8.0 | 16.0 | 0.00 | 0.00 | 0.00 | 43 | 1014.2 |
| 20260506002009 | 44 | 326 | 8.0 | 16.0 | 0.00 | 0.00 | 0.00 | 42 | 1014.1 |
| 20260506001616 | 44 | 323 | 7.0 | 12.0 | 0.00 | 0.00 | 0.00 | 43 | 1013.8 |
| 20260506001521 | 44 | 7 | 7.0 | 13.0 | 0.00 | 0.00 | 0.00 | 43 | 1014.1 |
| 20260506001007 | 45 | 316 | 6.0 | 14.0 | 0.00 | 0.00 | 0.00 | 43 | 1014.2 |
| 20260506000507 | 45 | 333 | 8.0 | 16.0 | 0.00 | 0.00 | 0.00 | 41 | 1014.1 |
| 20260506000056 | 45 | 326 | 5.0 | 18.0 | 0.00 | 0.00 | 0.00 | 42 | 1013.7 |
| 20260506000036 | 45 | 5 | 6.0 | 18.0 | 0.00 | 0.00 | 0.00 | 41 | 1014.1 |
| 20260505235507 | 45 | 336 | 9.0 | 18.0 | 0.00 | 0.00 | 0.00 | 40 | 1014.0 |
| 20260505235007 | 45 | 319 | 12.0 | 17.0 | 0.00 | 0.00 | 0.00 | 40 | 1014.0 |
| 20260505234611 | 46 | 332 | 6.0 | 13.0 | 0.00 | 0.00 | 0.00 | 41 | 1013.6 |
| 20260505234525 | 46 | 297 | 6.0 | 16.0 | 0.00 | 0.00 | 0.00 | 39 | 1014.0 |
| 20260505234009 | 46 | 360 | 8.0 | 16.0 | 0.00 | 0.00 | 0.00 | 39 | 1013.9 |
| 20260505233509 | 46 | 10 | 8.0 | 15.0 | 0.00 | 0.00 | 0.00 | 39 | 1013.9 |
| 20260505233055 | 46 | 302 | 9.0 | 15.0 | 0.00 | 0.00 | 0.00 | 39 | 1013.5 |
| 20260505233027 | 46 | 326 | 8.0 | 15.0 | 0.00 | 0.00 | 0.00 | 39 | 1013.9 |
| 20260505232513 | 46 | 298 | 8.0 | 17.0 | 0.00 | 0.00 | 0.00 | 38 | 1013.9 |
| 20260505232011 | 46 | 351 | 12.0 | 17.0 | 0.00 | 0.00 | 0.00 | 38 | 1013.9 |
| 20260505231554 | 46 | 332 | 8.0 | 18.0 | 0.00 | 0.00 | 0.00 | 39 | 1013.5 |
| 20260505231530 | 46 | 314 | 9.0 | 18.0 | 0.00 | 0.00 | 0.00 | 38 | 1013.9 |
| 20260505231006 | 46 | 330 | 11.0 | 18.0 | 0.00 | 0.00 | 0.00 | 38 | 1013.9 |
| 20260505230506 | 46 | 302 | 9.0 | 15.0 | 0.00 | 0.00 | 0.00 | 38 | 1013.8 |
| 20260505230053 | 46 | 312 | 5.0 | 15.0 | 0.00 | 0.00 | 0.00 | 38 | 1013.3 |
| 20260505230034 | 47 | 335 | 7.0 | 15.0 | 0.00 | 0.00 | 0.00 | 37 | 1013.8 |
| 20260505225510 | 47 | 331 | 7.0 | 18.0 | 0.00 | 0.00 | 0.00 | 38 | 1013.8 |
| 20260505225007 | 46 | 315 | 11.0 | 18.0 | 0.00 | 0.00 | 0.00 | 38 | 1013.8 |
| 20260505224552 | 46 | 340 | 9.0 | 15.0 | 0.00 | 0.00 | 0.00 | 39 | 1013.4 |
| 20260505224524 | 46 | 290 | 9.0 | 15.0 | 0.00 | 0.00 | 0.00 | 38 | 1013.8 |
| 20260505224007 | 46 | 323 | 8.0 | 15.0 | 0.00 | 0.00 | 0.00 | 40 | 1013.9 |
| 20260505223510 | 46 | 313 | 9.0 | 16.0 | 0.00 | 0.00 | 0.00 | 40 | 1013.9 |
| 20260505223105 | 46 | 278 | 8.0 | 16.0 | 0.00 | 0.00 | 0.00 | 39 | 1013.5 |
| 20260505223026 | 46 | 259 | 9.0 | 16.0 | 0.00 | 0.00 | 0.00 | 38 | 1013.8 |
| 20260505222513 | 46 | 287 | 7.0 | 16.0 | 0.00 | 0.00 | 0.00 | 39 | 1013.8 |
| 20260505222013 | 46 | 299 | 7.0 | 16.0 | 0.00 | 0.00 | 0.00 | 40 | 1013.9 |
| 20260505221550 | 46 | 293 | 7.0 | 16.0 | 0.00 | 0.00 | 0.00 | 41 | 1013.6 |
| 20260505221528 | 46 | 356 | 7.0 | 14.0 | 0.00 | 0.00 | 0.00 | 41 | 1013.9 |
| 20260505221012 | 46 | 269 | 7.0 | 16.0 | 0.00 | 0.00 | 0.00 | 39 | 1013.9 |
| 20260505220506 | 46 | 295 | 10.0 | 16.0 | 0.00 | 0.00 | 0.00 | 40 | 1013.9 |
| 20260505220050 | 46 | 321 | 8.0 | 16.0 | 0.00 | 0.00 | 0.00 | 40 | 1013.6 |
| 20260505220017 | 46 | 313 | 8.0 | 17.0 | 0.00 | 0.00 | 0.00 | 40 | 1013.9 |
| 20260505215505 | 46 | 360 | 9.0 | 17.0 | 0.00 | 0.00 | 0.00 | 40 | 1013.9 |
| 20260505215007 | 46 | 301 | 7.0 | 14.0 | 0.00 | 0.00 | 0.00 | 41 | 1013.9 |
| 20260505214556 | 45 | 307 | 8.0 | 17.0 | 0.00 | 0.00 | 0.00 | 40 | 1013.7 |
| 20260505214520 | 45 | 311 | 9.0 | 17.0 | 0.00 | 0.00 | 0.00 | 40 | 1014.0 |
| 20260505214009 | 46 | 332 | 11.0 | 17.0 | 0.00 | 0.00 | 0.00 | 39 | 1014.1 |
| 20260505213507 | 46 | 301 | 9.0 | 16.0 | 0.00 | 0.00 | 0.00 | 39 | 1013.9 |
| 20260505213048 | 46 | 292 | 7.0 | 16.0 | 0.00 | 0.00 | 0.00 | 39 | 1013.7 |
| 20260505213027 | 46 | 288 | 9.0 | 16.0 | 0.00 | 0.00 | 0.00 | 38 | 1014.1 |
| 20260505212510 | 46 | 349 | 8.0 | 15.0 | 0.00 | 0.00 | 0.00 | 38 | 1014.1 |
| 20260505212015 | 46 | 316 | 6.0 | 16.0 | 0.00 | 0.00 | 0.00 | 38 | 1014.0 |
| 20260505211556 | 46 | 260 | 9.0 | 16.0 | 0.00 | 0.00 | 0.00 | 40 | 1013.7 |
| 20260505211536 | 46 | 307 | 11.0 | 16.0 | 0.00 | 0.00 | 0.00 | 39 | 1014.0 |
| 20260505211004 | 45 | 319 | 5.0 | 13.0 | 0.00 | 0.00 | 0.00 | 41 | 1014.0 |
| 20260505210503 | 45 | 314 | 7.0 | 17.0 | 0.00 | 0.00 | 0.00 | 41 | 1014.0 |
| 20260505210047 | 45 | 288 | 5.0 | 17.0 | 0.00 | 0.00 | 0.00 | 40 | 1013.8 |
| 20260505210012 | 45 | 342 | 6.0 | 17.0 | 0.00 | 0.00 | 0.00 | 39 | 1014.0 |
| 20260505205508 | 46 | 297 | 7.0 | 17.0 | 0.00 | 0.00 | 0.00 | 39 | 1014.0 |
| 20260505205006 | 45 | 313 | 8.0 | 16.0 | 0.00 | 0.00 | 0.00 | 40 | 1014.0 |
| 20260505204544 | 46 | 295 | 7.0 | 18.0 | 0.00 | 0.00 | 0.00 | 40 | 1013.8 |
| 20260505204520 | 45 | 298 | 8.0 | 18.0 | 0.00 | 0.00 | 0.00 | 39 | 1014.0 |
| 20260505204007 | 45 | 321 | 12.0 | 18.0 | 0.00 | 0.00 | 0.00 | 38 | 1014.0 |
| 20260505203510 | 45 | 309 | 7.0 | 16.0 | 0.00 | 0.00 | 0.00 | 38 | 1014.0 |
| 20260505203057 | 45 | 324 | 9.0 | 16.0 | 0.00 | 0.00 | 0.00 | 38 | 1013.7 |
| 20260505203022 | 46 | 299 | 10.0 | 16.0 | 0.00 | 0.00 | 0.00 | 39 | 1013.9 |
| 20260505202506 | 46 | 318 | 9.0 | 14.0 | 0.00 | 0.00 | 0.00 | 38 | 1013.9 |
| 20260505202010 | 46 | 302 | 7.0 | 18.0 | 0.00 | 0.00 | 0.00 | 38 | 1013.9 |
| 20260505201543 | 46 | 293 | 10.0 | 18.0 | 0.00 | 0.00 | 0.00 | 37 | 1013.6 |
| 20260505201524 | 46 | 309 | 10.0 | 18.0 | 0.00 | 0.00 | 0.00 | 38 | 1013.9 |
| 20260505201009 | 46 | 288 | 9.0 | 16.0 | 0.00 | 0.00 | 0.00 | 39 | 1013.8 |
| 20260505200512 | 46 | 283 | 10.0 | 16.0 | 0.00 | 0.00 | 0.00 | 38 | 1013.9 |
| 20260505200041 | 46 | 311 | 8.0 | 15.0 | 0.00 | 0.00 | 0.00 | 39 | 1013.6 |
| 20260505200027 | 46 | 314 | 8.0 | 15.0 | 0.00 | 0.00 | 0.00 | 38 | 1013.9 |
| 20260505195503 | 46 | 341 | 8.0 | 16.0 | 0.00 | 0.00 | 0.00 | 39 | 1013.9 |
| 20260505195006 | 45 | 322 | 8.0 | 17.0 | 0.00 | 0.00 | 0.00 | 39 | 1013.8 |
| 20260505194543 | 45 | 285 | 10.0 | 17.0 | 0.00 | 0.00 | 0.00 | 39 | 1013.6 |
| 20260505194516 | 46 | 320 | 11.0 | 17.0 | 0.00 | 0.00 | 0.00 | 38 | 1013.9 |
| 20260505194011 | 46 | 315 | 8.0 | 16.0 | 0.00 | 0.00 | 0.00 | 41 | 1013.9 |
| 20260505193509 | 45 | 285 | 9.0 | 18.0 | 0.00 | 0.00 | 0.00 | 39 | 1013.8 |
| 20260505193040 | 45 | 285 | 11.0 | 18.0 | 0.00 | 0.00 | 0.00 | 40 | 1013.5 |
| 20260505193022 | 45 | 324 | 11.0 | 18.0 | 0.00 | 0.00 | 0.00 | 39 | 1013.8 |
| 20260505192507 | 45 | 311 | 10.0 | 18.0 | 0.00 | 0.00 | 0.00 | 40 | 1013.8 |
| 20260505192006 | 46 | 311 | 9.0 | 18.0 | 0.00 | 0.00 | 0.00 | 38 | 1013.7 |
| 20260505191545 | 45 | 300 | 10.0 | 17.0 | 0.00 | 0.00 | 0.00 | 39 | 1013.4 |
| 20260505191531 | 45 | 325 | 10.0 | 17.0 | 0.00 | 0.00 | 0.00 | 37 | 1013.7 |
| 20260505191008 | 46 | 318 | 10.0 | 14.0 | 0.00 | 0.00 | 0.00 | 38 | 1013.9 |
| 20260505190507 | 45 | 333 | 6.0 | 14.0 | 0.00 | 0.00 | 0.00 | 41 | 1013.8 |
| 20260505190041 | 45 | 340 | 8.0 | 14.0 | 0.00 | 0.00 | 0.00 | 40 | 1013.4 |
| 20260505190026 | 45 | 288 | 8.0 | 14.0 | 0.00 | 0.00 | 0.00 | 40 | 1013.8 |
| 20260505185513 | 45 | 337 | 6.0 | 17.0 | 0.00 | 0.00 | 0.00 | 39 | 1013.8 |
| 20260505185009 | 45 | 319 | 8.0 | 17.0 | 0.00 | 0.00 | 0.00 | 40 | 1013.8 |
| 20260505184546 | 45 | 307 | 7.0 | 12.0 | 0.00 | 0.00 | 0.00 | 41 | 1013.5 |
| 20260505184537 | 45 | 300 | 7.0 | 12.0 | 0.00 | 0.00 | 0.00 | 42 | 1013.8 |
| 20260505184011 | 44 | 310 | 7.0 | 12.0 | 0.00 | 0.00 | 0.00 | 41 | 1013.8 |
| 20260505183507 | 44 | 290 | 6.0 | 11.0 | 0.00 | 0.00 | 0.00 | 40 | 1013.8 |
| 20260505183042 | 44 | 290 | 4.0 | 15.0 | 0.00 | 0.00 | 0.00 | 42 | 1013.6 |
| 20260505183016 | 44 | 322 | 5.0 | 15.0 | 0.00 | 0.00 | 0.00 | 41 | 1013.9 |
| 20260505182507 | 44 | 340 | 7.0 | 15.0 | 0.00 | 0.00 | 0.00 | 41 | 1013.8 |
| 20260505182013 | 44 | 323 | 7.0 | 15.0 | 0.00 | 0.00 | 0.00 | 42 | 1013.9 |
| 20260505181536 | 44 | 320 | 9.0 | 15.0 | 0.00 | 0.00 | 0.00 | 41 | 1013.6 |
| 20260505181522 | 44 | 290 | 9.0 | 14.0 | 0.00 | 0.00 | 0.00 | 41 | 1013.9 |
| 20260505181007 | 44 | 310 | 9.0 | 16.0 | 0.00 | 0.00 | 0.00 | 40 | 1013.9 |
| 20260505180507 | 44 | 304 | 9.0 | 16.0 | 0.00 | 0.00 | 0.00 | 41 | 1013.8 |
| 20260505180034 | 44 | 292 | 10.0 | 16.0 | 0.00 | 0.00 | 0.00 | 42 | 1013.5 |
| 20260505180024 | 44 | 283 | 11.0 | 19.0 | 0.00 | 0.00 | 0.00 | 41 | 1013.8 |
| 20260505175513 | 44 | 312 | 6.0 | 20.0 | 0.00 | 0.00 | 0.00 | 41 | 1013.8 |
| 20260505175009 | 44 | 320 | 10.0 | 20.0 | 0.00 | 0.00 | 0.00 | 42 | 1013.7 |
| 20260505174535 | 44 | 297 | 7.0 | 15.0 | 0.00 | 0.00 | 0.00 | 40 | 1013.6 |
| 20260505174533 | 44 | 319 | 6.0 | 15.0 | 0.00 | 0.00 | 0.00 | 41 | 1013.3 |
| 20260505174010 | 44 | 316 | 11.0 | 15.0 | 0.00 | 0.00 | 0.00 | 40 | 1013.7 |
| 20260505173509 | 44 | 293 | 7.0 | 17.0 | 0.00 | 0.00 | 0.00 | 42 | 1013.6 |
| 20260505173033 | 44 | 314 | 11.0 | 17.0 | 0.00 | 0.00 | 0.00 | 40 | 1013.3 |
| 20260505173026 | 44 | 316 | 12.0 | 17.0 | 0.00 | 0.00 | 0.00 | 40 | 1013.7 |
| 20260505172514 | 44 | 310 | 9.0 | 21.0 | 0.00 | 0.00 | 0.00 | 41 | 1013.7 |
| 20260505172008 | 44 | 307 | 8.0 | 21.0 | 0.00 | 0.00 | 0.00 | 41 | 1013.7 |
| 20260505171532 | 44 | 334 | 9.0 | 16.0 | 0.00 | 0.00 | 0.00 | 42 | 1013.4 |
| 20260505171530 | 44 | 311 | 10.0 | 18.0 | 0.00 | 0.00 | 0.00 | 41 | 1013.7 |
| 20260505171006 | 44 | 309 | 9.0 | 18.0 | 0.00 | 0.00 | 0.00 | 41 | 1013.7 |
| 20260505170509 | 44 | 308 | 10.0 | 18.0 | 0.00 | 0.00 | 0.00 | 40 | 1013.6 |
| 20260505170035 | 44 | 234 | 10.0 | 21.0 | 0.00 | 0.00 | 0.00 | 41 | 1013.2 |
| 20260505170023 | 44 | 297 | 9.0 | 21.0 | 0.00 | 0.00 | 0.00 | 41 | 1013.5 |
| 20260505165507 | 44 | 323 | 12.0 | 21.0 | 0.00 | 0.00 | 0.00 | 40 | 1013.4 |
| 20260505165011 | 44 | 312 | 11.0 | 16.0 | 0.00 | 0.00 | 0.00 | 39 | 1013.3 |
| 20260505164533 | 44 | 319 | 10.0 | 18.0 | 0.00 | 0.00 | 0.00 | 39 | 1012.9 |
| 20260505164524 | 44 | 304 | 11.0 | 18.0 | 0.00 | 0.00 | 0.00 | 39 | 1013.3 |
| 20260505164008 | 44 | 310 | 14.0 | 19.0 | 0.00 | 0.00 | 0.00 | 41 | 1013.3 |
| 20260505163508 | 44 | 313 | 10.0 | 24.0 | 0.00 | 0.00 | 0.00 | 40 | 1013.1 |
| 20260505163028 | 44 | 327 | 15.0 | 24.0 | 0.00 | 0.00 | 0.00 | 40 | 1012.8 |
| 20260505163026 | 44 | 315 | 15.0 | 24.0 | 0.00 | 0.00 | 0.00 | 39 | 1013.2 |
| 20260505162510 | 44 | 294 | 11.0 | 21.0 | 0.00 | 0.00 | 0.00 | 40 | 1013.1 |
| 20260505162011 | 44 | 303 | 12.0 | 18.0 | 0.00 | 0.00 | 0.00 | 40 | 1013.1 |
| 20260505161526 | 44 | 295 | 9.0 | 19.0 | 0.00 | 0.00 | 0.00 | 42 | 1013.0 |
| 20260505161010 | 44 | 325 | 9.0 | 19.0 | 0.00 | 0.00 | 0.00 | 42 | 1013.0 |
| 20260505160511 | 44 | 312 | 9.0 | 20.0 | 0.00 | 0.00 | 0.00 | 42 | 1012.9 |
| 20260505153035 | 46 | 351 | 11.0 | 20.0 | 0.00 | 0.00 | 0.00 | 37 | 1012.8 |
| 20260505153024 | 46 | 330 | 11.0 | 20.0 | 0.00 | 0.00 | 0.00 | 38 | 1012.5 |
| 20260505152511 | 45 | 4 | 12.0 | 20.0 | 0.00 | 0.00 | 0.00 | 39 | 1012.8 |
| 20260505152014 | 45 | 292 | 12.0 | 21.0 | 0.00 | 0.00 | 0.00 | 38 | 1012.8 |
| 20260505151529 | 45 | 312 | 8.0 | 21.0 | 0.00 | 0.00 | 0.00 | 40 | 1012.7 |
| 20260505151013 | 44 | 342 | 10.0 | 19.0 | 0.00 | 0.00 | 0.00 | 40 | 1012.8 |
| 20260505150516 | 44 | 13 | 11.0 | 19.0 | 0.00 | 0.00 | 0.00 | 43 | 1012.9 |
| 20260505140508 | 41 | 320 | 9.0 | 20.0 | 0.00 | 0.00 | 0.00 | 60 | 1012.6 |
| 20260505125007 | 35 | 286 | 6.0 | 11.0 | 0.00 | 0.00 | 0.00 | 73 | 1011.9 |
| 20260505124553 | 35 | 304 | 6.0 | 12.0 | 0.00 | 0.00 | 0.00 | 74 | 1011.6 |
| 20260505124516 | 35 | 308 | 6.0 | 12.0 | 0.00 | 0.00 | 0.00 | 73 | 1011.9 |
| 20260505124007 | 34 | 313 | 6.0 | 12.0 | 0.00 | 0.00 | 0.00 | 74 | 1011.7 |
| 20260505123509 | 34 | 313 | 6.0 | 12.0 | 0.00 | 0.00 | 0.00 | 74 | 1011.7 |
| 20260505123053 | 33 | 302 | 4.0 | 11.0 | 0.00 | 0.00 | 0.00 | 76 | 1011.4 |
| 20260505123025 | 33 | 285 | 5.0 | 11.0 | 0.00 | 0.00 | 0.00 | 75 | 1011.8 |
| 20260505122506 | 33 | 307 | 7.0 | 11.0 | 0.00 | 0.00 | 0.00 | 75 | 1011.8 |
| 20260505122008 | 32 | 260 | 5.0 | 10.0 | 0.00 | 0.00 | 0.00 | 76 | 1011.7 |
| 20260505121550 | 32 | 297 | 3.0 | 8.0 | 0.00 | 0.00 | 0.00 | 76 | 1011.3 |
| 20260505121527 | 32 | 268 | 4.0 | 8.0 | 0.00 | 0.00 | 0.00 | 76 | 1011.6 |
| 20260505121007 | 32 | 271 | 5.0 | 8.0 | 0.00 | 0.00 | 0.00 | 76 | 1011.5 |
| 20260505120514 | 32 | 305 | 4.0 | 8.0 | 0.00 | 0.00 | 0.00 | 77 | 1011.4 |
| 20260505120045 | 31 | 306 | 3.0 | 8.0 | 0.00 | 0.00 | 0.00 | 77 | 1011.1 |
| 20260505120008 | 31 | 300 | 3.0 | 8.0 | 0.00 | 0.00 | 0.00 | 77 | 1011.4 |
| 20260505115503 | 31 | 306 | 2.0 | 8.0 | 0.00 | 0.00 | 0.00 | 77 | 1011.4 |
| 20260505115007 | 31 | 314 | 3.0 | 8.0 | 0.00 | 0.00 | 0.00 | 78 | 1011.3 |
| 20260505114543 | 31 | 285 | 3.0 | 9.0 | 0.00 | 0.00 | 0.00 | 79 | 1010.9 |
| 20260505114511 | 31 | 290 | 4.0 | 9.0 | 0.00 | 0.00 | 0.00 | 78 | 1011.3 |
| 20260505114007 | 31 | 270 | 3.0 | 9.0 | 0.00 | 0.00 | 0.00 | 78 | 1011.3 |
| 20260505113505 | 30 | 296 | 4.0 | 9.0 | 0.00 | 0.00 | 0.00 | 79 | 1011.4 |
| 20260505113043 | 30 | 272 | 1.0 | 6.0 | 0.00 | 0.00 | 0.00 | 80 | 1010.8 |
| 20260505113014 | 30 | 249 | 2.0 | 7.0 | 0.00 | 0.00 | 0.00 | 79 | 1011.2 |
| 20260505112510 | 30 | 306 | 2.0 | 7.0 | 0.00 | 0.00 | 0.00 | 79 | 1011.2 |
| 20260505112006 | 30 | 250 | 3.0 | 8.0 | 0.00 | 0.00 | 0.00 | 79 | 1011.2 |
| 20260505111544 | 30 | 293 | 3.0 | 8.0 | 0.00 | 0.00 | 0.00 | 80 | 1010.7 |
| 20260505111532 | 30 | 297 | 4.0 | 8.0 | 0.00 | 0.00 | 0.00 | 79 | 1011.2 |
| 20260505111007 | 30 | 326 | 3.0 | 8.0 | 0.00 | 0.00 | 0.00 | 79 | 1011.2 |
| 20260505110508 | 30 | 311 | 4.0 | 7.0 | 0.00 | 0.00 | 0.00 | 79 | 1011.2 |
| 20260505102006 | 31 | 296 | 3.0 | 8.0 | 0.00 | 0.00 | 0.00 | 78 | 1011.2 |
| 20260505101535 | 30 | 285 | 1.0 | 5.0 | 0.00 | 0.00 | 0.00 | 79 | 1010.5 |
| 20260505101516 | 30 | 306 | 2.0 | 7.0 | 0.00 | 0.00 | 0.00 | 78 | 1011.2 |
| 20260505101011 | 30 | 278 | 2.0 | 7.0 | 0.00 | 0.00 | 0.00 | 79 | 1011.2 |
| 20260505100506 | 30 | 299 | 1.0 | 5.0 | 0.00 | 0.00 | 0.00 | 79 | 1011.2 |
| 20260505100034 | 30 | 284 | 2.0 | 4.0 | 0.00 | 0.00 | 0.00 | 79 | 1010.4 |
| 20260505100023 | 30 | 288 | 3.0 | 4.0 | 0.00 | 0.00 | 0.00 | 79 | 1011.1 |
| 20260505095510 | 30 | 302 | 2.0 | 5.0 | 0.00 | 0.00 | 0.00 | 79 | 1011.1 |
| 20260505095014 | 30 | 319 | 2.0 | 5.0 | 0.00 | 0.00 | 0.00 | 79 | 1011.1 |
| 20260505094529 | 30 | 281 | 2.0 | 5.0 | 0.00 | 0.00 | 0.00 | 79 | 1010.5 |
| 20260505094526 | 30 | 295 | 2.0 | 5.0 | 0.00 | 0.00 | 0.00 | 79 | 1011.2 |
| 20260505094010 | 30 | 296 | 2.0 | 6.0 | 0.00 | 0.00 | 0.00 | 79 | 1011.0 |
| 20260505093509 | 30 | 309 | 3.0 | 6.0 | 0.00 | 0.00 | 0.00 | 78 | 1010.9 |
| 20260505093033 | 30 | 300 | 2.0 | 6.0 | 0.00 | 0.00 | 0.00 | 79 | 1010.2 |
| 20260505093027 | 30 | 294 | 3.0 | 6.0 | 0.00 | 0.00 | 0.00 | 78 | 1010.8 |
| 20260505092509 | 30 | 302 | 3.0 | 6.0 | 0.00 | 0.00 | 0.00 | 78 | 1010.8 |
| 20260505092006 | 30 | 271 | 2.0 | 5.0 | 0.00 | 0.00 | 0.00 | 77 | 1010.8 |
| 20260505091523 | 30 | 304 | 2.0 | 6.0 | 0.00 | 0.00 | 0.00 | 77 | 1010.2 |
| 20260505091516 | 30 | 294 | 3.0 | 6.0 | 0.00 | 0.00 | 0.00 | 77 | 1010.8 |
| 20260505091005 | 30 | 297 | 3.0 | 6.0 | 0.00 | 0.00 | 0.00 | 77 | 1010.8 |
| 20260505090506 | 30 | 322 | 3.0 | 6.0 | 0.00 | 0.00 | 0.00 | 76 | 1010.9 |
| 20260505090026 | 31 | 300 | 2.0 | 7.0 | 0.00 | 0.00 | 0.00 | 77 | 1010.1 |
| 20260505090021 | 31 | 300 | 3.0 | 7.0 | 0.00 | 0.00 | 0.00 | 76 | 1010.8 |
| 20260505085506 | 30 | 303 | 3.0 | 7.0 | 0.00 | 0.00 | 0.00 | 76 | 1010.8 |
| 20260505085007 | 30 | 298 | 2.0 | 3.0 | 0.00 | 0.00 | 0.00 | 77 | 1010.8 |
| 20260505084526 | 30 | 297 | 1.0 | 3.0 | 0.00 | 0.00 | 0.00 | 77 | 1010.1 |
| 20260505084521 | 30 | 266 | 1.0 | 6.0 | 0.00 | 0.00 | 0.00 | 76 | 1010.8 |
| 20260505084010 | 31 | 238 | 1.0 | 6.0 | 0.00 | 0.00 | 0.00 | 76 | 1010.7 |
| 20260505083514 | 31 | 285 | 2.0 | 6.0 | 0.00 | 0.00 | 0.00 | 75 | 1010.7 |
| 20260505083023 | 31 | 295 | 3.0 | 8.0 | 0.00 | 0.00 | 0.00 | 75 | 1010.6 |
| 20260505083017 | 31 | 302 | 3.0 | 6.0 | 0.00 | 0.00 | 0.00 | 76 | 1009.9 |
| 20260505082510 | 31 | 308 | 3.0 | 8.0 | 0.00 | 0.00 | 0.00 | 76 | 1010.5 |
| 20260505082010 | 31 | 300 | 3.0 | 8.0 | 0.00 | 0.00 | 0.00 | 77 | 1010.4 |
| 20260505081526 | 31 | 311 | 2.0 | 4.0 | 0.00 | 0.00 | 0.00 | 77 | 1010.3 |
| 20260505081515 | 31 | 311 | 1.0 | 4.0 | 0.00 | 0.00 | 0.00 | 77 | 1009.7 |
| 20260505081009 | 31 | 283 | 0.0 | 4.0 | 0.00 | 0.00 | 0.00 | 76 | 1010.4 |
| 20260505080508 | 31 | 316 | 1.0 | 4.0 | 0.00 | 0.00 | 0.00 | 76 | 1010.4 |
| 20260505080023 | 31 | 314 | 1.0 | 4.0 | 0.00 | 0.00 | 0.00 | 76 | 1009.7 |
| 20260505080016 | 31 | 314 | 2.0 | 5.0 | 0.00 | 0.00 | 0.00 | 76 | 1010.4 |
| 20260505075506 | 31 | 319 | 1.0 | 5.0 | 0.00 | 0.00 | 0.00 | 75 | 1010.3 |
| 20260505075007 | 31 | 300 | 3.0 | 5.0 | 0.00 | 0.00 | 0.00 | 75 | 1010.3 |
| 20260505074520 | 31 | 283 | 2.0 | 5.0 | 0.00 | 0.00 | 0.00 | 75 | 1010.3 |
| 20260505074510 | 31 | 312 | 1.0 | 5.0 | 0.00 | 0.00 | 0.00 | 75 | 1009.5 |
| 20260505074007 | 31 | 323 | 2.0 | 5.0 | 0.00 | 0.00 | 0.00 | 74 | 1010.2 |
| 20260505073511 | 32 | 308 | 3.0 | 6.0 | 0.00 | 0.00 | 0.00 | 73 | 1010.2 |
| 20260505073022 | 32 | 324 | 3.0 | 9.0 | 0.00 | 0.00 | 0.00 | 72 | 1010.3 |
| 20260505073008 | 32 | 309 | 3.0 | 9.0 | 0.00 | 0.00 | 0.00 | 73 | 1009.4 |
| 20260505072507 | 33 | 299 | 3.0 | 9.0 | 0.00 | 0.00 | 0.00 | 71 | 1010.2 |
| 20260505072008 | 33 | 284 | 4.0 | 6.0 | 0.00 | 0.00 | 0.00 | 70 | 1010.2 |
| 20260505071527 | 33 | 286 | 3.0 | 6.0 | 0.00 | 0.00 | 0.00 | 70 | 1010.2 |
| 20260505071504 | 33 | 308 | 2.0 | 6.0 | 0.00 | 0.00 | 0.00 | 70 | 1009.3 |
| 20260505071011 | 34 | 313 | 3.0 | 7.0 | 0.00 | 0.00 | 0.00 | 70 | 1010.2 |
| 20260505070510 | 34 | 281 | 2.0 | 7.0 | 0.00 | 0.00 | 0.00 | 69 | 1010.2 |
| 20260505070012 | 34 | 295 | 1.0 | 6.0 | 0.00 | 0.00 | 0.00 | 69 | 1010.3 |
| 20260505070002 | 34 | 295 | 1.0 | 6.0 | 0.00 | 0.00 | 0.00 | 70 | 1009.4 |
| 20260505065503 | 34 | 314 | 3.0 | 7.0 | 0.00 | 0.00 | 0.00 | 69 | 1010.3 |
| 20260505065005 | 34 | 295 | 2.0 | 7.0 | 0.00 | 0.00 | 0.00 | 69 | 1010.3 |
| 20260505064559 | 34 | 292 | 2.0 | 7.0 | 0.00 | 0.00 | 0.00 | 69 | 1009.4 |
| 20260505064522 | 34 | 293 | 2.0 | 5.0 | 0.00 | 0.00 | 0.00 | 68 | 1010.4 |
| 20260505064010 | 35 | 325 | 2.0 | 6.0 | 0.00 | 0.00 | 0.00 | 68 | 1010.3 |
| 20260505063505 | 35 | 293 | 3.0 | 6.0 | 0.00 | 0.00 | 0.00 | 67 | 1010.3 |
| 20260505063057 | 35 | 307 | 1.0 | 7.0 | 0.00 | 0.00 | 0.00 | 67 | 1009.4 |
| 20260505063022 | 35 | 304 | 2.0 | 7.0 | 0.00 | 0.00 | 0.00 | 67 | 1010.4 |
| 20260505062510 | 35 | 298 | 3.0 | 7.0 | 0.00 | 0.00 | 0.00 | 66 | 1010.4 |
| 20260505062006 | 36 | 308 | 4.0 | 6.0 | 0.00 | 0.00 | 0.00 | 66 | 1010.4 |
| 20260505061613 | 36 | 306 | 3.0 | 6.0 | 0.00 | 0.00 | 0.00 | 67 | 1009.3 |
| 20260505061524 | 36 | 306 | 3.0 | 6.0 | 0.00 | 0.00 | 0.00 | 67 | 1010.4 |
| 20260505061007 | 35 | 241 | 1.0 | 4.0 | 0.00 | 0.00 | 0.00 | 67 | 1010.3 |
| 20260505060510 | 36 | 243 | 1.0 | 2.0 | 0.00 | 0.00 | 0.00 | 66 | 1010.3 |
| 20260505060056 | 36 | 261 | 0.0 | 2.0 | 0.00 | 0.00 | 0.00 | 66 | 1009.1 |
| 20260505060010 | 36 | 261 | 0.0 | 5.0 | 0.00 | 0.00 | 0.00 | 65 | 1010.1 |
| 20260505055504 | 36 | 310 | 1.0 | 5.0 | 0.00 | 0.00 | 0.00 | 64 | 1010.1 |
| 20260505055004 | 37 | 299 | 2.0 | 7.0 | 0.00 | 0.00 | 0.00 | 63 | 1010.0 |
| 20260505054551 | 37 | 253 | 3.0 | 7.0 | 0.00 | 0.00 | 0.00 | 63 | 1009.0 |
| 20260505054520 | 37 | 316 | 4.0 | 7.0 | 0.00 | 0.00 | 0.00 | 63 | 1010.0 |
| 20260505054006 | 37 | 271 | 2.0 | 6.0 | 0.00 | 0.00 | 0.00 | 63 | 1010.0 |
| 20260505053511 | 37 | 304 | 2.0 | 6.0 | 0.00 | 0.00 | 0.00 | 63 | 1009.9 |
| 20260505053045 | 37 | 307 | 1.0 | 5.0 | 0.00 | 0.00 | 0.00 | 63 | 1008.9 |
| 20260505053016 | 37 | 296 | 1.0 | 6.0 | 0.00 | 0.00 | 0.00 | 62 | 1010.0 |
| 20260505052506 | 37 | 316 | 1.0 | 6.0 | 0.00 | 0.00 | 0.00 | 62 | 1009.9 |
| 20260505052006 | 37 | 321 | 1.0 | 6.0 | 0.00 | 0.00 | 0.00 | 62 | 1009.9 |
| 20260505051543 | 38 | 293 | 1.0 | 8.0 | 0.00 | 0.00 | 0.00 | 61 | 1008.8 |
| 20260505051520 | 38 | 263 | 2.0 | 8.0 | 0.00 | 0.00 | 0.00 | 61 | 1009.8 |
| 20260505051007 | 38 | 296 | 4.0 | 8.0 | 0.00 | 0.00 | 0.00 | 61 | 1009.9 |
| 20260505050508 | 37 | 314 | 4.0 | 7.0 | 0.00 | 0.00 | 0.00 | 62 | 1009.9 |